CW8306 Weather Reports


Display with metric or nautical units.
time (UTC)temp
F
wind
direction
speed
MPH
gust
MPH
rain 1hr
in
rain 24hr
in
rain mn
in
humidity
%
barometer
mb
20260901211101 72 287 2.0 3.0 0.00 0.00 0.00 68 1013.4
20260901210556 71 237 1.0 5.0 0.00 0.00 0.00 68 1013.1
20260901210053 71 252 3.0 3.0 0.00 0.00 0.00 68 1013.0
20260901205547 71 206 2.0 5.0 0.00 0.00 0.00 68 1013.0
20260901205041 71 206 2.0 5.0 0.00 0.00 0.00 68 1013.0
20260901204538 71 221 1.0 5.0 0.00 0.00 0.00 67 1013.0
20260901204033 71 302 1.0 6.0 0.00 0.00 0.00 68 1012.9
20260901203527 71 275 3.0 8.0 0.00 0.00 0.00 68 1013.1
20260901203022 71 44 3.0 3.0 0.00 0.00 0.00 69 1013.1
20260901202517 71 299 3.0 6.0 0.00 0.00 0.00 68 1013.0
20260901202013 70 178 2.0 7.0 0.00 0.00 0.00 68 1012.9
20260901201508 70 235 3.0 3.0 0.00 0.00 0.00 69 1013.0
20260901201002 70 262 2.0 6.0 0.00 0.00 0.00 69 1012.8
20260901200456 70 137 1.0 5.0 0.00 0.00 0.00 68 1012.8
20260901195956 70 27 2.0 3.0 0.00 0.00 0.00 68 1012.8
20260901195455 70 226 1.0 6.0 0.00 0.00 0.00 68 1013.0
20260901194949 71 237 2.0 7.0 0.00 0.00 0.00 68 1013.1
20260901194444 70 288 2.0 3.0 0.00 0.00 0.00 68 1013.1
20260901193940 70 273 5.0 9.0 0.00 0.00 0.00 68 1013.0
20260901193440 70 239 3.0 8.0 0.00 0.00 0.00 68 1012.9
20260901192939 70 341 2.0 7.0 0.00 0.00 0.00 68 1012.9
20260901192436 70 326 2.0 5.0 0.00 0.00 0.00 69 1012.8
20260901191931 71 73 2.0 5.0 0.00 0.00 0.00 70 1012.9
20260901191427 70 1 3.0 6.0 0.00 0.00 0.00 70 1012.9
20260901190922 71 269 1.0 7.0 0.00 0.00 0.00 70 1012.8
20260901190422 71 283 2.0 10.0 0.00 0.00 0.00 69 1012.7
20260901185920 71 287 5.0 8.0 0.00 0.00 0.00 68 1013.1
20260901185420 71 289 2.0 3.0 0.00 0.00 0.00 68 1012.9
20260901184914 71 274 3.0 11.0 0.00 0.00 0.00 67 1012.7
20260901184410 71 269 5.0 10.0 0.00 0.00 0.00 68 1012.9
20260901183905 71 14 3.0 5.0 0.00 0.00 0.00 68 1012.7
20260901183405 71 3 5.0 6.0 0.00 0.00 0.00 69 1012.8
20260901182901 70 333 2.0 6.0 0.00 0.00 0.00 70 1012.5
20260901182355 70 279 3.0 6.0 0.00 0.00 0.00 71 1012.8
20260901181850 70 178 2.0 3.0 0.00 0.00 0.00 71 1012.7
20260901181345 70 305 5.0 9.0 0.00 0.00 0.00 70 1012.8
20260901180844 71 13 6.0 9.0 0.00 0.00 0.00 69 1012.7
20260901180343 71 100 2.0 7.0 0.00 0.00 0.00 69 1012.8
20260901175842 71 305 2.0 2.0 0.00 0.00 0.00 69 1012.7
20260901175337 71 263 2.0 7.0 0.00 0.00 0.00 69 1012.8
20260901174832 71 170 3.0 6.0 0.00 0.00 0.00 69 1012.6
20260901174328 71 325 4.0 5.0 0.00 0.00 0.00 69 1012.7
20260901173823 70 276 3.0 8.0 0.00 0.00 0.00 70 1012.5
20260901173318 71 316 3.0 6.0 0.00 0.00 0.00 70 1012.5
20260901172815 70 357 3.0 6.0 0.00 0.00 0.00 71 1012.6
20260901172314 69 246 6.0 10.0 0.00 0.00 0.00 71 1012.9
20260901171812 70 327 5.0 8.0 0.00 0.00 0.00 71 1012.7
20260901171311 70 23 4.0 8.0 0.00 0.00 0.00 70 1012.6
20260901170810 70 210 4.0 6.0 0.00 0.00 0.00 71 1012.7
20260901170305 69 8 5.0 7.0 0.00 0.00 0.00 72 1012.7
20260901165803 69 149 2.0 6.0 0.00 0.00 0.00 72 1012.6
20260901165258 69 335 4.0 7.0 0.00 0.00 0.00 71 1012.4
20260901164755 69 218 3.0 6.0 0.00 0.00 0.00 73 1012.4
20260901164250 68 289 3.0 8.0 0.00 0.00 0.00 73 1012.2
20260901163745 69 232 5.0 10.0 0.00 0.00 0.00 72 1012.4
20260901163245 69 171 3.0 13.0 0.00 0.00 0.00 73 1012.2
20260901162740 69 240 2.0 9.0 0.00 0.00 0.00 73 1012.3
20260901162239 69 305 3.0 5.0 0.00 0.00 0.00 73 1012.2
20260901161738 69 26 4.0 10.0 0.00 0.00 0.00 72 1012.1
20260901161233 69 316 5.0 10.0 0.00 0.00 0.00 72 1012.0
20260901160729 69 293 5.0 10.0 0.00 0.00 0.00 73 1012.0
20260901160225 69 308 4.0 13.0 0.00 0.00 0.00 73 1011.9
20260901155723 69 356 3.0 8.0 0.00 0.00 0.00 74 1011.8
20260901155218 68 340 6.0 10.0 0.00 0.00 0.00 74 1011.9
20260901154713 68 283 4.0 8.0 0.00 0.00 0.00 74 1011.7
20260901154208 68 294 5.0 10.0 0.00 0.00 0.00 75 1011.8
20260901153704 68 242 7.0 11.0 0.00 0.00 0.00 75 1011.4
20260901153157 68 203 4.0 10.0 0.00 0.00 0.00 75 1011.4
20260901152652 67 296 4.0 8.0 0.00 0.00 0.00 76 1011.4
20260901152151 67 274 4.0 8.0 0.00 0.00 0.00 77 1011.4
20260901151647 67 249 1.0 8.0 0.00 0.00 0.00 77 1011.3
20260901151146 67 290 2.0 11.0 0.00 0.00 0.00 77 1011.2
20260901150645 66 218 5.0 8.0 0.00 0.00 0.00 78 1011.1
20260901150143 67 285 3.0 6.0 0.00 0.00 0.00 78 1011.3
20260901145641 66 288 4.0 8.0 0.00 0.00 0.00 79 1011.3
20260901145136 66 317 2.0 8.0 0.00 0.00 0.00 80 1011.3
20260901144632 66 229 3.0 8.0 0.00 0.00 0.00 80 1011.6
20260901144127 65 293 5.0 8.0 0.00 0.00 0.00 81 1011.0
20260901143622 65 242 4.0 8.0 0.00 0.00 0.00 82 1011.0
20260901143118 64 313 4.0 8.0 0.00 0.00 0.00 82 1011.1
20260901142614 64 312 3.0 10.0 0.00 0.00 0.00 83 1011.2
20260901142113 64 248 3.0 10.0 0.00 0.00 0.00 83 1011.1
20260901141608 64 253 3.0 9.0 0.00 0.00 0.00 84 1011.0
20260901141103 63 319 5.0 10.0 0.00 0.00 0.00 84 1011.1
20260901140601 63 272 4.0 6.0 0.00 0.00 0.00 84 1010.7
20260901140056 63 295 3.0 10.0 0.00 0.00 0.00 84 1010.8
20260901135555 63 317 4.0 8.0 0.00 0.00 0.00 85 1010.7
20260901135050 62 262 3.0 9.0 0.00 0.00 0.00 86 1010.6
20260901134547 62 260 2.0 8.0 0.00 0.00 0.00 87 1010.6
20260901134047 61 258 3.0 9.0 0.00 0.00 0.00 88 1010.6
20260901133546 61 298 3.0 7.0 0.00 0.00 0.00 89 1010.6
20260901133044 60 243 2.0 3.0 0.00 0.00 0.00 89 1010.8
20260901132539 60 195 1.0 2.0 0.00 0.00 0.00 90 1010.6
20260901132039 60 271 1.0 3.0 0.00 0.00 0.00 90 1010.5
20260901131533 60 305 1.0 5.0 0.00 0.00 0.00 90 1010.8
20260901131028 59 206 0.0 2.0 0.00 0.00 0.00 91 1010.6
20260901130528 59 215 0.0 2.0 0.00 0.00 0.00 91 1010.6
20260901130027 59 233 0.0 2.0 0.00 0.00 0.00 91 1010.4
20260901125525 59 182 0.0 2.0 0.00 0.00 0.00 91 1010.2
20260901125021 59 215 3.0 3.0 0.00 0.00 0.00 91 1010.4
20260901124516 59 247 0.0 2.0 0.00 0.00 0.00 91 1010.3
20260901124015 59 187 1.0 3.0 0.00 0.00 0.00 91 1010.2
20260901123511 59 248 0.0 2.0 0.00 0.00 0.00 92 1010.2
20260901123010 59 282 1.0 2.0 0.00 0.00 0.00 92 1009.9
20260901122509 59 178 0.0 1.0 0.00 0.00 0.00 92 1009.9
20260901122008 59 216 0.0 1.0 0.00 0.00 0.00 92 1009.9
20260901121503 59 210 0.0 2.0 0.00 0.00 0.00 92 1010.0
20260901120958 59 215 0.0 0.0 0.00 0.00 0.00 92 1010.0
20260901120458 58 238 0.0 1.0 0.00 0.00 0.00 92 1009.8
20260901115953 58 204 1.0 2.0 0.00 0.00 0.00 92 1009.8
20260901115448 59 179 0.0 3.0 0.00 0.00 0.00 92 1009.8
20260901114946 58 302 1.0 3.0 0.00 0.00 0.00 92 1009.7
20260901114441 58 213 0.0 3.0 0.00 0.00 0.00 91 1009.6
20260901113939 58 228 0.0 1.0 0.00 0.00 0.00 91 1009.7
20260901113438 58 208 0.0 3.0 0.00 0.00 0.00 91 1009.3
20260901112928 59 227 0.0 1.0 0.00 0.00 0.00 91 1009.7
20260901112423 59 214 0.0 5.0 0.00 0.00 0.00 91 1009.6
20260901111918 59 214 0.0 2.0 0.00 0.00 0.00 90 1009.2
20260901111416 59 272 4.0 7.0 0.00 0.00 0.00 91 1009.2
20260901110915 59 228 1.0 3.0 0.00 0.00 0.00 90 1009.3
20260901110411 59 264 2.0 5.0 0.00 0.00 0.00 90 1009.3
20260901105907 59 236 2.0 5.0 0.00 0.00 0.00 90 1009.3
20260901105402 59 265 3.0 6.0 0.00 0.00 0.00 90 1009.2
20260901104858 59 273 2.0 6.0 0.00 0.00 0.00 90 1009.4
20260901104353 59 277 2.0 5.0 0.00 0.00 0.00 90 1009.3
20260901103848 59 212 0.0 5.0 0.00 0.00 0.00 90 1009.5
20260901103343 59 231 1.0 5.0 0.00 0.00 0.00 90 1009.3
20260901102837 59 271 2.0 3.0 0.00 0.00 0.00 89 1009.4
20260901102332 59 236 2.0 3.0 0.00 0.00 0.00 89 1009.2
20260901101828 59 312 4.0 7.0 0.00 0.00 0.00 90 1009.2
20260901101327 59 280 3.0 3.0 0.00 0.00 0.00 90 1009.3
20260901100826 58 289 3.0 5.0 0.00 0.00 0.00 90 1009.3
20260901100322 58 224 1.0 7.0 0.00 0.00 0.00 90 1009.1
20260901095820 58 316 2.0 6.0 0.00 0.00 0.00 90 1009.1
20260901095318 58 253 1.0 6.0 0.00 0.00 0.00 90 1009.3
20260901094813 58 227 2.0 8.0 0.00 0.00 0.00 90 1009.4
20260901094308 58 276 3.0 8.0 0.00 0.00 0.00 90 1009.4
20260901093802 58 285 3.0 6.0 0.00 0.00 0.00 90 1008.9
20260901093301 58 238 3.0 7.0 0.00 0.00 0.00 90 1009.1
20260901092757 58 275 2.0 5.0 0.00 0.00 0.00 91 1009.3
20260901092253 58 276 3.0 6.0 0.00 0.00 0.00 91 1009.2
20260901091748 58 293 2.0 6.0 0.00 0.00 0.00 91 1009.1
20260901091244 58 232 0.0 3.0 0.00 0.00 0.00 91 1009.2
20260901090738 58 242 3.0 5.0 0.00 0.00 0.00 91 1009.1
20260901090233 58 202 1.0 8.0 0.00 0.00 0.00 91 1009.2
20260901085729 58 279 1.0 3.0 0.00 0.00 0.00 91 1009.1
20260901085224 58 236 0.0 5.0 0.00 0.00 0.00 91 1009.3
20260901084721 58 326 2.0 5.0 0.00 0.00 0.00 91 1009.1
20260901084217 58 224 0.0 3.0 0.00 0.00 0.00 91 1009.0
20260901083711 58 219 0.0 6.0 0.00 0.00 0.00 91 1009.2
20260901083210 58 253 1.0 3.0 0.00 0.00 0.00 91 1009.1
20260901082709 58 206 2.0 6.0 0.00 0.00 0.00 91 1009.1
20260901082205 58 225 1.0 2.0 0.00 0.00 0.00 91 1008.9
20260901081701 58 337 2.0 3.0 0.00 0.00 0.00 91 1008.9
20260901081200 58 271 2.0 3.0 0.00 0.00 0.00 91 1008.7
20260901080655 58 217 0.0 3.0 0.00 0.00 0.00 91 1009.0
20260901080154 58 226 1.0 3.0 0.00 0.00 0.00 91 1009.2
20260901075649 58 291 2.0 5.0 0.00 0.00 0.00 91 1009.0
20260901075149 58 214 0.0 2.0 0.00 0.00 0.00 90 1009.1
20260901074648 58 246 0.0 3.0 0.00 0.00 0.00 90 1009.2
20260901074143 58 246 0.0 2.0 0.00 0.00 0.00 90 1009.0
20260901073640 58 230 2.0 5.0 0.00 0.00 0.00 90 1009.1
20260901073135 58 224 2.0 3.0 0.00 0.00 0.00 90 1009.0
20260901072631 59 236 0.0 1.0 0.00 0.00 0.00 89 1009.0
20260901072125 59 243 0.0 3.0 0.00 0.00 0.00 89 1009.0
20260901071619 59 256 0.0 1.0 0.00 0.00 0.00 89 1008.7
20260901071119 59 180 0.0 1.0 0.00 0.00 0.00 89 1008.6
20260901070613 59 254 0.0 3.0 0.00 0.00 0.00 89 1008.6
20260901070109 59 291 2.0 3.0 0.00 0.00 0.00 89 1008.8
20260901065603 59 233 0.0 3.0 0.00 0.00 0.00 88 1008.7
20260901065057 59 224 2.0 2.0 0.00 0.00 0.00 88 1008.8
20260901064554 59 267 1.0 2.0 0.00 0.00 0.00 88 1008.9
20260901064050 60 221 1.0 2.0 0.00 0.00 0.00 87 1009.1
20260901063547 60 217 0.0 1.0 0.00 0.00 0.00 87 1009.1
20260901063043 60 216 0.0 2.0 0.00 0.00 0.00 87 1008.7
20260901062538 60 275 0.0 5.0 0.00 0.00 0.00 87 1008.7
20260901062034 60 219 1.0 3.0 0.00 0.00 0.00 86 1008.9
20260901061530 60 192 2.0 2.0 0.00 0.00 0.00 86 1008.8
20260901061025 60 210 0.0 3.0 0.00 0.00 0.00 86 1008.8
20260901060519 60 228 1.0 2.0 0.00 0.00 0.00 86 1008.7
20260901060014 60 223 0.0 2.0 0.00 0.00 0.00 86 1008.8
20260901055510 60 255 3.0 5.0 0.00 0.00 0.00 85 1008.5
20260901055006 60 222 1.0 6.0 0.00 0.00 0.00 85 1008.6
20260901054504 61 261 1.0 2.0 0.00 0.00 0.00 85 1008.4
20260901053959 61 161 0.0 2.0 0.00 0.00 0.00 85 1008.7
20260901053454 61 228 0.0 2.0 0.00 0.00 0.00 85 1008.5
20260901052950 61 288 3.0 6.0 0.00 0.00 0.00 84 1008.2
20260901052445 61 292 2.0 5.0 0.00 0.00 0.00 84 1008.4
20260901051944 61 318 1.0 5.0 0.00 0.00 0.00 84 1008.5
20260901051440 61 211 3.0 3.0 0.00 0.00 0.00 84 1008.4
20260901050939 61 216 1.0 6.0 0.00 0.00 0.00 84 1008.3
20260901050435 61 113 2.0 5.0 0.00 0.00 0.00 83 1008.2
20260901045935 61 191 1.0 5.0 0.00 0.44 0.44 83 1008.1
20260901045430 61 216 1.0 5.0 0.00 0.44 0.44 83 1008.4
20260901044924 61 236 1.0 2.0 0.00 0.44 0.44 82 1008.1
20260901044421 61 293 1.0 3.0 0.00 0.44 0.44 82 1008.0
20260901043916 61 276 1.0 3.0 0.00 0.44 0.44 82 1008.1
20260901043412 61 212 0.0 1.0 0.00 0.44 0.44 81 1007.8
20260901042906 61 349 1.0 2.0 0.00 0.44 0.44 81 1008.1
20260901042401 61 221 2.0 3.0 0.00 0.44 0.44 81 1007.9
20260901041857 61 211 0.0 3.0 0.00 0.44 0.44 81 1007.9
20260901041351 61 213 0.0 1.0 0.00 0.44 0.44 80 1008.1
20260901040846 61 173 0.0 1.0 0.00 0.44 0.44 80 1007.8
20260901040345 61 231 0.0 2.0 0.00 0.44 0.44 80 1007.8
20260901035844 60 205 1.0 2.0 0.00 0.44 0.44 80 1007.7
20260901035343 61 210 0.0 1.0 0.00 0.44 0.44 80 1007.7
20260901034842 61 216 1.0 3.0 0.00 0.44 0.44 80 1007.8
20260901034337 61 189 1.0 2.0 0.00 0.44 0.44 80 1007.6
20260901033837 61 206 0.0 2.0 0.00 0.44 0.44 80 1007.7
20260901033336 61 220 0.0 1.0 0.00 0.44 0.44 80 1007.9
20260901032835 61 198 0.0 2.0 0.00 0.44 0.44 79 1008.0
20260901032334 61 229 1.0 1.0 0.00 0.44 0.44 79 1007.9
20260901031830 61 211 0.0 2.0 0.00 0.44 0.44 78 1007.9
20260901031326 62 231 2.0 3.0 0.00 0.44 0.44 78 1007.8
20260901030825 62 283 3.0 3.0 0.00 0.44 0.44 77 1007.5
20260901030321 62 289 3.0 5.0 0.00 0.44 0.44 77 1007.6
20260901025820 62 232 2.0 3.0 0.00 0.44 0.44 77 1007.6
20260901025315 62 308 0.0 1.0 0.00 0.44 0.44 77 1007.5
20260901024810 62 243 1.0 2.0 0.00 0.44 0.44 77 1007.4
20260901024309 63 192 0.0 2.0 0.00 0.44 0.44 76 1007.5
20260901023807 63 276 3.0 5.0 0.00 0.44 0.44 75 1007.6
20260901023302 63 206 1.0 3.0 0.00 0.44 0.44 75 1007.4
20260901022757 63 191 1.0 5.0 0.00 0.44 0.44 74 1007.5
20260901022253 64 210 0.0 5.0 0.00 0.44 0.44 74 1007.2
20260901021748 64 232 1.0 2.0 0.00 0.44 0.44 73 1007.4
20260901021244 64 265 2.0 5.0 0.00 0.44 0.44 73 1007.4
20260901020739 64 282 1.0 3.0 0.00 0.44 0.44 72 1006.9
20260901020234 65 203 0.0 6.0 0.00 0.44 0.44 72 1007.4
20260901015729 65 282 3.0 10.0 0.00 0.44 0.44 71 1007.2
20260901015225 65 265 4.0 7.0 0.00 0.44 0.44 70 1006.7
20260901014724 65 310 4.0 10.0 0.00 0.44 0.44 69 1006.7
20260901014221 66 269 3.0 7.0 0.00 0.44 0.44 68 1006.6
20260901013716 66 204 2.0 11.0 0.00 0.44 0.44 67 1006.5
20260901013211 66 293 5.0 8.0 0.00 0.44 0.44 66 1006.4
20260901012706 67 222 5.0 7.0 0.00 0.44 0.44 65 1006.2
20260901012201 67 308 7.0 13.0 0.00 0.44 0.44 65 1006.0
20260901011657 68 276 3.0 9.0 0.00 0.44 0.44 67 1005.9
20260901011156 68 171 7.0 10.0 0.00 0.44 0.44 70 1005.9
20260901010651 68 199 5.0 9.0 0.00 0.44 0.44 74 1005.7
20260901010151 68 255 5.0 7.0 0.00 0.44 0.44 76 1005.4
20260901005644 67 311 6.0 10.0 0.00 0.44 0.44 77 1005.6
20260901005140 68 284 5.0 13.0 0.00 0.44 0.44 76 1005.4
20260901004639 70 268 7.0 10.0 0.00 0.44 0.44 72 1005.7
20260901004134 70 244 7.0 14.0 0.00 0.44 0.44 68 1005.3
20260901003629 71 259 4.0 11.0 0.00 0.44 0.44 67 1005.2
20260901003128 71 275 3.0 9.0 0.00 0.44 0.44 66 1004.8
20260901002628 72 269 7.0 11.0 0.00 0.44 0.44 65 1005.0
20260901002122 72 251 3.0 14.0 0.00 0.44 0.44 64 1004.9
20260901001617 72 290 8.0 11.0 0.00 0.44 0.44 64 1004.8
20260901001113 72 239 6.0 15.0 0.00 0.44 0.44 63 1004.6
20260901000608 73 235 2.0 14.0 0.00 0.44 0.44 63 1004.6
20260901000103 73 300 8.0 13.0 0.00 0.44 0.44 64 1004.3
20260831235556 74 278 6.0 13.0 0.00 0.44 0.44 61 1004.6
20260831235052 74 214 4.0 6.0 0.00 0.44 0.44 60 1004.0
20260831234546 74 117 3.0 11.0 0.00 0.44 0.44 60 1004.0
20260831234042 75 287 4.0 8.0 0.00 0.44 0.44 59 1004.1
20260831233537 75 187 3.0 11.0 0.00 0.44 0.44 59 1003.7
20260831233033 75 2 3.0 9.0 0.00 0.44 0.44 59 1003.8
20260831232528 75 268 4.0 8.0 0.00 0.44 0.44 58 1003.9
20260831232024 75 299 5.0 11.0 0.00 0.44 0.44 57 1003.8
20260831231520 75 333 5.0 7.0 0.00 0.44 0.44 57 1003.8
20260831231015 75 314 4.0 9.0 0.00 0.44 0.44 56 1003.8
20260831230510 75 204 4.0 6.0 0.00 0.44 0.44 55 1003.7
20260831230005 76 217 2.0 7.0 0.00 0.44 0.44 54 1003.7
20260831225501 76 285 2.0 6.0 0.00 0.44 0.44 53 1003.7
20260831225000 77 287 5.0 8.0 0.00 0.44 0.44 50 1003.6
20260831224455 77 277 2.0 7.0 0.00 0.44 0.44 50 1003.5
20260831223949 77 289 4.0 8.0 0.00 0.44 0.44 49 1003.5
20260831223445 77 213 2.0 9.0 0.00 0.44 0.44 48 1003.6
20260831222942 77 279 3.0 15.0 0.00 0.44 0.44 48 1003.5
20260831222437 77 212 3.0 9.0 0.00 0.44 0.44 48 1003.4
20260831221932 77 134 3.0 6.0 0.00 0.44 0.44 48 1003.1
20260831221428 77 212 1.0 9.0 0.00 0.44 0.44 48 1003.3
20260831220923 77 246 2.0 6.0 0.00 0.44 0.44 50 1003.0
20260831220418 77 226 3.0 6.0 0.00 0.44 0.44 48 1003.3
20260831215913 77 231 1.0 6.0 0.00 0.44 0.44 50 1003.1
20260831215409 77 251 1.0 6.0 0.00 0.44 0.44 50 1003.1
20260831214905 77 45 2.0 6.0 0.00 0.44 0.44 50 1003.2
20260831214403 77 154 1.0 5.0 0.00 0.44 0.44 50 1003.2
20260831213858 76 205 3.0 3.0 0.00 0.44 0.44 50 1003.4
20260831213354 77 206 1.0 6.0 0.00 0.44 0.44 50 1003.5
20260831212849 77 166 2.0 3.0 0.00 0.44 0.44 50 1003.6
20260831212346 77 233 2.0 6.0 0.00 0.44 0.44 49 1003.8
20260831211844 77 233 2.0 3.0 0.00 0.44 0.44 49 1003.6